NOAA 16 DEB, 41056

Orbit data source: Space-Track

NOAA 16 DEB, 41056 is space debris in SSO originally from a launch on Thu, 21 Sep 2000 UTC launched from the Air Force Western Test Range (AFWTR). Debris objects in space refer to the collection of defunct objects orbiting the Earth. Examples of debris include non-operational satellites, rocket bodies, and fragments generated from explosions, collisions, or faulty payload assembly.

Loading next visibility...
Identifier
41056, 2000-055P
Orbit
SSO
Country
Flag of USUS
Related business
Manufacturer
Unknown
Mission
Spacecraft
Bus & Motor
Unknown
Mass
Unknown
Launch date (UTC)
2000-09-21 (26 years ago)
Launch vehicle
Unknown
Launch site
Air Force Western Test Range (AFWTR)
Object type
Payload
Rocket body
Debris
Shape & HBR
Unknown shape, 0.1 m
Radar Cross Section
Medium (>0.1 m² and <1 m²)

Expand to show TLE details & history
Last TLE update: 2 days ago

TLE from 2 days ago
0 NOAA 16 DEB
1 41056U 00055P   26170.97091839  .00000617  00000-0  34721-3 0  9992
2 41056  98.5569 170.2757 0018680 106.3498 253.9731 14.13792694543887
Epoch: 2026-06-19T23:18Z
TLE epoch observation values (Epoch: 2026-06-19T23:18:07.348Z)
Latitude
-0.00007°
Longitude
-87.44715°
Altitude
853.083 km
Speed
7.424 km/s
True Right ascension
11h 21m 06s
True Declination
0° 00' 00"
Sunlit
Object was in daylight at epoch
Visualization orbit readout
Latitude
Unknown
Longitude
Unknown
Altitude
Unknown
Speed
Unknown
Apparent Right ascension
Unknown
Apparent Declination
Unknown
Sunlit
N/A
Visualization observer readout
Local Sidereal Time
21:58:23
Azimuth
Unknown
Elevation
Unknown
Doppler factor
Unknown
Orbital elements
Apogee altitude
857.072 km
Perigee altitude
830.092 km
Semi-major axis
7,221.719 km
Eccentricity
0.00187
Inclination
98.5569°
RAAN
170.2757°
Arg. of periapsis
106.3498°
True anomaly
253.7675°
Mean anomaly
253.9731°
Eccentric anomaly
253.87028°
Mean motion
3.53657 °/min
Orbital period
101.79 mins
BSTAR
0.00034721
Loading maneuver chart data...
Computing Atmospheric mass density...
Loading historical data...
Loading historical data...
Loading historical data...
Loading historical data...
Loading historical data...
Loading historical data...
Loading historical data...

Documentation

Showing up to 5 results
|